BANGABANDHUSAT-1

Last updated on Jan. 29, 2020, 4:37 a.m. UTC

1 43463U 18044A   20028.86721220 -.00000363  00000-0  00000+0 0  9999
2 43463   0.0109  89.9021 0001337 237.1113 231.8657  1.00266366  6359
UTC
Height (km)
Latitude
Longitude
Inclination
Orbital Period
UTC large
Height (km)
Speed (km/s)
/
Latitude / Longitude
Inclination (degrees)
Orbital Period (minutes)
Azimuth
Elevation
Range (km)
Doppler Factor
iOS Compass Heading
iOS Angle

Next 30 passes for location: Hong Kong

Rise time Rise Azimuth (degrees) Set time Set Azimuth (degrees) Duration Max altitude (degrees)

No matching passes for this satellites